Hourly Data Report for September 23, 2017

All times are specified in Local Standard Time (LST). Add 1 hour to adjust for Daylight Saving Time where and when it is observed.

EUREKA CLIMATE
NUNAVUT

79°59'21.000" N
85°56'02.000" W
10.00 m
2401199
71613
NEK

Download Data

Hourly Data (September 2017)
Hourly Data Report for September 23, 2017
Temp Definition
°C
Dew Point Temp Definition
°C
Rel Hum Definition
%
Wind Dir Definition
10's deg

Wind Spd Definition
km/h
Visibility Definition
km
Stn Press Definition
kPa
Hmdx Definition


Wind Chill Definition


Weather Definition


TIME
00:00 -13.5 -14.4 93 13 4   101.60   -16 LegendNANA
01:00 -13.2 -14.0 93 10 5   101.59   -17 LegendNANA
02:00 -12.1 -12.9 94 13 3   101.58   -14 LegendNANA
03:00 -11.6 -12.4 94 11 4   101.59   -14 LegendNANA
04:00 -10.4 -11.0 95 13 2   101.58   -12 LegendNANA
05:00 -9.7 -10.4 95 11 6   101.59   -13 LegendNANA
06:00 -9.7 -10.3 95 13 4   101.57   -12 LegendNANA
07:00 -9.3 -9.9 95 13 2   101.57   -10 LegendNANA
08:00 -9.0 -9.8 94 14 3   101.57   -11 LegendNANA
09:00 -8.2 -9.0 94 10 2   101.57   -9 LegendNANA
10:00 -7.6 -8.8 91 20 1   101.57   -8 LegendNANA
11:00 -8.1 -9.3 91 12 4   101.58   -10 LegendNANA
12:00 -8.0 -9.1 92 11 8   101.59   -12 LegendNANA
13:00 -6.7 -7.7 92 5 2   101.60   -8 LegendNANA
14:00 -5.1 -6.4 91 14 2   101.63   -6 LegendNANA
15:00 -5.9 -6.5 96 13 4   101.65   -8 LegendNANA
16:00 -6.2 -6.7 96 10 6   101.68   -9 LegendNANA
17:00 -4.4 -5.0 95 3 7   101.71   -8 LegendNANA
18:00 -6.1 -8.5 83 30 8   101.75   -10 LegendNANA
19:00 -6.3 -8.4 85 29 7   101.79   -10 LegendNANA
20:00 -6.3 -8.3 86 7 7   101.77   -10 LegendNANA
21:00 -7.1 -9.0 87 27 10   101.77   -12 LegendNANA
22:00 -7.7 -9.1 89 26 13   101.80   -13 LegendNANA
23:00 -8.3 -9.9 88 10 4   101.81   -10 LegendNANA

Notes on Data Quality.

Legend

  • E = Estimated
  • M = Missing
  • NA = Not Available
  • ‡ = Partner data that is not subject to review by the National Climate Archives
Date modified: